Time,TemperatureF,DewpointF,PressureIn,WindDirection,WindDirectionDegrees,WindSpeedMPH,WindSpeedGustMPH,Humidity,HourlyPrecipIn,Conditions,Clouds,dailyrainin,SolarRadiationWatts/m^2,SoftwareType,DateUTC
2013-06-04 00:02:00,57.0,38.0,-100.00,WSW,245,1.0,7.0,49,0.00,,,0.00,0.000000,,2013-06-04 06:02:00,
2013-06-04 00:12:00,57.0,38.0,-100.00,WSW,245,1.0,7.0,49,0.00,,,0.00,0.000000,,2013-06-04 06:12:00,
2013-06-04 00:22:00,57.0,38.0,-100.00,WSW,245,1.0,7.0,49,0.00,,,0.00,0.000000,,2013-06-04 06:22:00,
2013-06-04 00:32:00,57.0,38.0,-100.00,WSW,245,1.0,7.0,49,0.00,,,0.00,0.000000,,2013-06-04 06:32:00,
2013-06-04 00:42:00,56.0,38.0,-100.00,NW,318,2.0,6.0,51,0.00,,,0.00,0.000000,,2013-06-04 06:42:00,
2013-06-04 01:02:00,56.0,38.0,-100.00,NW,318,2.0,6.0,51,0.00,,,0.00,0.000000,,2013-06-04 07:02:00,
2013-06-04 01:12:00,56.0,38.0,-100.00,NW,318,2.0,6.0,51,0.00,,,0.00,0.000000,,2013-06-04 07:12:00,
2013-06-04 01:22:00,56.0,38.0,-100.00,NW,318,2.0,6.0,51,0.00,,,0.00,0.000000,,2013-06-04 07:22:00,
2013-06-04 01:32:00,56.0,38.0,-100.00,NW,318,2.0,6.0,51,0.00,,,0.00,0.000000,,2013-06-04 07:32:00,
2013-06-04 01:42:00,53.0,38.0,-100.00,ESE,117,1.0,6.0,57,0.00,,,0.00,0.000000,,2013-06-04 07:42:00,
2013-06-04 02:02:00,53.0,38.0,-100.00,ESE,117,1.0,6.0,57,0.00,,,0.00,0.000000,,2013-06-04 08:02:00,
2013-06-04 02:12:00,53.0,38.0,-100.00,ESE,117,1.0,6.0,57,0.00,,,0.00,0.000000,,2013-06-04 08:12:00,
2013-06-04 02:22:00,53.0,38.0,-100.00,ESE,117,1.0,6.0,57,0.00,,,0.00,0.000000,,2013-06-04 08:22:00,
2013-06-04 02:32:00,53.0,38.0,-100.00,ESE,117,1.0,6.0,57,0.00,,,0.00,0.000000,,2013-06-04 08:32:00,
2013-06-04 02:42:00,53.0,38.0,-100.00,North,11,2.0,5.0,57,0.00,,,0.00,0.000000,,2013-06-04 08:42:00,
2013-06-04 03:02:00,53.0,38.0,-100.00,North,11,2.0,5.0,57,0.00,,,0.00,0.000000,,2013-06-04 09:02:00,
2013-06-04 03:12:00,53.0,38.0,-100.00,North,11,2.0,5.0,57,0.00,,,0.00,0.000000,,2013-06-04 09:12:00,
2013-06-04 03:22:00,53.0,38.0,-100.00,North,11,2.0,5.0,57,0.00,,,0.00,0.000000,,2013-06-04 09:22:00,
2013-06-04 03:32:00,53.0,38.0,-100.00,North,11,2.0,5.0,57,0.00,,,0.00,0.000000,,2013-06-04 09:32:00,
2013-06-04 03:42:00,51.0,38.0,-100.00,ESE,123,2.0,7.0,61,0.00,,,0.00,0.000000,,2013-06-04 09:42:00,
2013-06-04 04:02:00,51.0,38.0,-100.00,ESE,123,2.0,7.0,61,0.00,,,0.00,0.000000,,2013-06-04 10:02:00,
2013-06-04 04:12:00,51.0,38.0,-100.00,ESE,123,2.0,7.0,61,0.00,,,0.00,0.000000,,2013-06-04 10:12:00,
2013-06-04 04:22:00,51.0,38.0,-100.00,ESE,123,2.0,7.0,61,0.00,,,0.00,0.000000,,2013-06-04 10:22:00,
2013-06-04 04:32:00,51.0,38.0,-100.00,ESE,123,2.0,7.0,61,0.00,,,0.00,0.000000,,2013-06-04 10:32:00,
2013-06-04 04:42:00,51.0,38.0,-100.00,SW,214,2.0,7.0,61,0.00,,,0.00,0.000000,,2013-06-04 10:42:00,
2013-06-04 05:02:00,51.0,38.0,-100.00,SW,214,2.0,7.0,61,0.00,,,0.00,0.000000,,2013-06-04 11:02:00,
2013-06-04 05:12:00,51.0,38.0,-100.00,SW,214,2.0,7.0,61,0.00,,,0.00,0.000000,,2013-06-04 11:12:00,
2013-06-04 05:22:00,51.0,38.0,-100.00,SW,214,2.0,7.0,61,0.00,,,0.00,0.000000,,2013-06-04 11:22:00,
2013-06-04 05:32:00,51.0,38.0,-100.00,SW,214,2.0,7.0,61,0.00,,,0.00,0.000000,,2013-06-04 11:32:00,
2013-06-04 05:42:00,51.0,38.0,-100.00,SSW,192,2.0,7.0,60,0.00,,,0.00,0.000000,,2013-06-04 11:42:00,
2013-06-04 06:02:00,51.0,38.0,-100.00,SSW,192,2.0,7.0,60,0.00,,,0.00,0.000000,,2013-06-04 12:02:00,
2013-06-04 06:12:00,51.0,38.0,-100.00,SSW,192,2.0,7.0,60,0.00,,,0.00,0.000000,,2013-06-04 12:12:00,
2013-06-04 06:22:00,51.0,38.0,-100.00,SSW,192,2.0,7.0,60,0.00,,,0.00,0.000000,,2013-06-04 12:22:00,
2013-06-04 06:32:00,51.0,38.0,-100.00,SSW,192,2.0,7.0,60,0.00,,,0.00,0.000000,,2013-06-04 12:32:00,
2013-06-04 06:42:00,52.0,38.0,-100.00,NNW,347,2.0,7.0,58,0.00,,,0.00,8.000000,,2013-06-04 12:42:00,
2013-06-04 07:02:00,52.0,38.0,-100.00,NNW,347,2.0,7.0,58,0.00,,,0.00,8.000000,,2013-06-04 13:02:00,
2013-06-04 07:12:00,52.0,38.0,-100.00,NNW,347,2.0,7.0,58,0.00,,,0.00,8.000000,,2013-06-04 13:12:00,
2013-06-04 07:22:00,52.0,38.0,-100.00,NNW,347,2.0,7.0,58,0.00,,,0.00,8.000000,,2013-06-04 13:22:00,
2013-06-04 07:32:00,52.0,38.0,-100.00,NNW,347,2.0,7.0,58,0.00,,,0.00,8.000000,,2013-06-04 13:32:00,
2013-06-04 07:42:00,56.0,39.0,-100.00,WNW,293,3.0,6.0,53,0.00,,,0.00,103.000000,,2013-06-04 13:42:00,
2013-06-04 08:02:00,56.0,39.0,-100.00,WNW,293,3.0,6.0,53,0.00,,,0.00,103.000000,,2013-06-04 14:02:00,
2013-06-04 08:12:00,56.0,39.0,-100.00,WNW,293,3.0,6.0,53,0.00,,,0.00,103.000000,,2013-06-04 14:12:00,
2013-06-04 08:22:00,56.0,39.0,-100.00,WNW,293,3.0,6.0,53,0.00,,,0.00,103.000000,,2013-06-04 14:22:00,
2013-06-04 08:32:00,56.0,39.0,-100.00,WNW,293,3.0,6.0,53,0.00,,,0.00,103.000000,,2013-06-04 14:32:00,
2013-06-04 08:42:00,60.0,40.0,-100.00,NW,316,4.0,10.0,47,0.00,,,0.00,280.000000,,2013-06-04 14:42:00,
2013-06-04 09:02:00,60.0,40.0,-100.00,NW,316,4.0,10.0,47,0.00,,,0.00,280.000000,,2013-06-04 15:02:00,
2013-06-04 09:12:00,60.0,40.0,-100.00,NW,316,4.0,10.0,47,0.00,,,0.00,280.000000,,2013-06-04 15:12:00,
2013-06-04 09:22:00,60.0,40.0,-100.00,NW,316,4.0,10.0,47,0.00,,,0.00,280.000000,,2013-06-04 15:22:00,
2013-06-04 09:33:00,60.0,40.0,-100.00,NW,316,4.0,10.0,47,0.00,,,0.00,280.000000,,2013-06-04 15:33:00,
2013-06-04 09:42:00,65.0,39.0,-100.00,NNE,32,4.0,15.0,38,0.00,,,0.00,461.000000,,2013-06-04 15:42:00,
2013-06-04 10:03:00,65.0,39.0,-100.00,NNE,32,4.0,15.0,38,0.00,,,0.00,461.000000,,2013-06-04 16:03:00,
2013-06-04 10:12:00,65.0,39.0,-100.00,NNE,32,4.0,15.0,38,0.00,,,0.00,461.000000,,2013-06-04 16:12:00,
2013-06-04 10:22:00,65.0,39.0,-100.00,NNE,32,4.0,15.0,38,0.00,,,0.00,461.000000,,2013-06-04 16:22:00,
2013-06-04 10:32:00,65.0,39.0,-100.00,NNE,32,4.0,15.0,38,0.00,,,0.00,461.000000,,2013-06-04 16:32:00,
2013-06-04 10:42:00,67.0,36.0,-100.00,ENE,67,5.0,18.0,32,0.00,,,0.00,632.000000,,2013-06-04 16:42:00,
2013-06-04 11:02:00,67.0,36.0,-100.00,ENE,67,5.0,18.0,32,0.00,,,0.00,632.000000,,2013-06-04 17:02:00,
2013-06-04 11:12:00,67.0,36.0,-100.00,ENE,67,5.0,18.0,32,0.00,,,0.00,632.000000,,2013-06-04 17:12:00,
2013-06-04 11:22:00,67.0,36.0,-100.00,ENE,67,5.0,18.0,32,0.00,,,0.00,632.000000,,2013-06-04 17:22:00,
2013-06-04 11:32:00,67.0,36.0,-100.00,ENE,67,5.0,18.0,32,0.00,,,0.00,632.000000,,2013-06-04 17:32:00,
2013-06-04 11:42:00,68.0,36.0,-100.00,NW,315,6.0,14.0,31,0.00,,,0.00,771.000000,,2013-06-04 17:42:00,
2013-06-04 12:02:00,68.0,36.0,-100.00,NW,315,6.0,14.0,31,0.00,,,0.00,771.000000,,2013-06-04 18:02:00,
2013-06-04 12:12:00,68.0,36.0,-100.00,NW,315,6.0,14.0,31,0.00,,,0.00,771.000000,,2013-06-04 18:12:00,
2013-06-04 12:22:00,68.0,36.0,-100.00,NW,315,6.0,14.0,31,0.00,,,0.00,771.000000,,2013-06-04 18:22:00,
2013-06-04 12:32:00,68.0,36.0,-100.00,NW,315,6.0,14.0,31,0.00,,,0.00,771.000000,,2013-06-04 18:32:00,
2013-06-04 12:42:00,71.0,37.0,-100.00,NW,326,7.0,20.0,29,0.00,,,0.00,888.000000,,2013-06-04 18:42:00,
2013-06-04 13:02:00,71.0,37.0,-100.00,NW,326,7.0,20.0,29,0.00,,,0.00,888.000000,,2013-06-04 19:02:00,
2013-06-04 13:12:00,71.0,37.0,-100.00,NW,326,7.0,20.0,29,0.00,,,0.00,888.000000,,2013-06-04 19:12:00,
2013-06-04 13:22:00,71.0,37.0,-100.00,NW,326,7.0,20.0,29,0.00,,,0.00,888.000000,,2013-06-04 19:22:00,
2013-06-04 13:32:00,71.0,37.0,-100.00,NW,326,7.0,20.0,29,0.00,,,0.00,888.000000,,2013-06-04 19:32:00,
2013-06-04 13:42:00,72.0,34.0,-100.00,NW,317,6.0,17.0,25,0.00,,,0.00,948.000000,,2013-06-04 19:42:00,
2013-06-04 14:02:00,72.0,34.0,-100.00,NW,317,6.0,17.0,25,0.00,,,0.00,948.000000,,2013-06-04 20:02:00,
2013-06-04 14:12:00,72.0,34.0,-100.00,NW,317,6.0,17.0,25,0.00,,,0.00,948.000000,,2013-06-04 20:12:00,
2013-06-04 14:22:00,72.0,34.0,-100.00,NW,317,6.0,17.0,25,0.00,,,0.00,948.000000,,2013-06-04 20:22:00,
2013-06-04 14:32:00,72.0,34.0,-100.00,NW,317,6.0,17.0,25,0.00,,,0.00,948.000000,,2013-06-04 20:32:00,
2013-06-04 14:42:00,74.0,35.0,-100.00,NNW,329,7.0,19.0,24,0.00,,,0.00,959.000000,,2013-06-04 20:42:00,
2013-06-04 15:02:00,74.0,35.0,-100.00,NNW,329,7.0,19.0,24,0.00,,,0.00,959.000000,,2013-06-04 21:02:00,
2013-06-04 15:12:00,74.0,35.0,-100.00,NNW,329,7.0,19.0,24,0.00,,,0.00,959.000000,,2013-06-04 21:12:00,
2013-06-04 15:22:00,74.0,35.0,-100.00,NNW,329,7.0,19.0,24,0.00,,,0.00,959.000000,,2013-06-04 21:22:00,
2013-06-04 15:33:00,74.0,35.0,-100.00,NNW,329,7.0,19.0,24,0.00,,,0.00,959.000000,,2013-06-04 21:33:00,
2013-06-04 15:42:00,76.0,34.0,-100.00,NNW,332,5.0,18.0,22,0.00,,,0.00,924.000000,,2013-06-04 21:42:00,
2013-06-04 16:02:00,76.0,34.0,-100.00,NNW,332,5.0,18.0,22,0.00,,,0.00,924.000000,,2013-06-04 22:02:00,
2013-06-04 16:12:00,76.0,34.0,-100.00,NNW,332,5.0,18.0,22,0.00,,,0.00,924.000000,,2013-06-04 22:12:00,
2013-06-04 16:22:00,76.0,34.0,-100.00,NNW,332,5.0,18.0,22,0.00,,,0.00,924.000000,,2013-06-04 22:22:00,
2013-06-04 16:32:00,76.0,34.0,-100.00,NNW,332,5.0,18.0,22,0.00,,,0.00,924.000000,,2013-06-04 22:32:00,
2013-06-04 16:42:00,77.0,35.0,-100.00,NW,323,8.0,18.0,22,0.00,,,-99.99,842.000000,,2013-06-04 22:42:00,
2013-06-04 17:02:00,77.0,35.0,-100.00,NW,323,8.0,18.0,22,0.00,,,-99.99,842.000000,,2013-06-04 23:02:00,
2013-06-04 17:12:00,77.0,35.0,-100.00,NW,323,8.0,18.0,22,0.00,,,-99.99,842.000000,,2013-06-04 23:12:00,
2013-06-04 17:22:00,77.0,35.0,-100.00,NW,323,8.0,18.0,22,0.00,,,-99.99,842.000000,,2013-06-04 23:22:00,
2013-06-04 17:32:00,77.0,35.0,-100.00,NW,323,8.0,18.0,22,0.00,,,-99.99,842.000000,,2013-06-04 23:32:00,
2013-06-04 17:42:00,77.0,36.0,-100.00,NNW,329,9.0,18.0,23,0.00,,,0.00,714.000000,,2013-06-04 23:42:00,
2013-06-04 18:02:00,77.0,36.0,-100.00,NNW,329,9.0,18.0,23,0.00,,,0.00,714.000000,,2013-06-05 00:02:00,
2013-06-04 18:12:00,77.0,36.0,-100.00,NNW,329,9.0,18.0,23,0.00,,,0.00,714.000000,,2013-06-05 00:12:00,
2013-06-04 18:22:00,77.0,36.0,-100.00,NNW,329,9.0,18.0,23,0.00,,,0.00,714.000000,,2013-06-05 00:22:00,
2013-06-04 18:32:00,77.0,36.0,-100.00,NNW,329,9.0,18.0,23,0.00,,,0.00,714.000000,,2013-06-05 00:32:00,
2013-06-04 18:42:00,77.0,37.0,-100.00,NW,325,10.0,18.0,24,0.00,,,0.00,522.000000,,2013-06-05 00:42:00,
2013-06-04 19:02:00,77.0,37.0,-100.00,NW,325,10.0,18.0,24,0.00,,,0.00,522.000000,,2013-06-05 01:02:00,
2013-06-04 19:12:00,77.0,37.0,-100.00,NW,325,10.0,18.0,24,0.00,,,0.00,522.000000,,2013-06-05 01:12:00,
2013-06-04 19:22:00,77.0,37.0,-100.00,NW,325,10.0,18.0,24,0.00,,,0.00,522.000000,,2013-06-05 01:22:00,
2013-06-04 19:32:00,77.0,37.0,-100.00,NW,325,10.0,18.0,24,0.00,,,0.00,522.000000,,2013-06-05 01:32:00,
2013-06-04 19:42:00,75.0,38.0,-100.00,NNW,331,6.0,19.0,26,0.00,,,0.00,367.000000,,2013-06-05 01:42:00,
2013-06-04 20:02:00,75.0,38.0,-100.00,NNW,331,6.0,19.0,26,0.00,,,0.00,367.000000,,2013-06-05 02:02:00,
2013-06-04 20:12:00,75.0,38.0,-100.00,NNW,331,6.0,19.0,26,0.00,,,0.00,367.000000,,2013-06-05 02:12:00,
2013-06-04 20:22:00,75.0,38.0,-100.00,NNW,331,6.0,19.0,26,0.00,,,0.00,367.000000,,2013-06-05 02:22:00,
2013-06-04 20:32:00,75.0,38.0,-100.00,NNW,331,6.0,19.0,26,0.00,,,0.00,367.000000,,2013-06-05 02:32:00,
2013-06-04 20:42:00,72.0,38.0,-100.00,West,281,1.0,11.0,29,0.00,,,0.00,183.000000,,2013-06-05 02:42:00,
2013-06-04 21:02:00,72.0,38.0,-100.00,West,281,1.0,11.0,29,0.00,,,0.00,183.000000,,2013-06-05 03:02:00,
2013-06-04 21:12:00,72.0,38.0,-100.00,West,281,1.0,11.0,29,0.00,,,0.00,183.000000,,2013-06-05 03:12:00,
2013-06-04 21:22:00,72.0,38.0,-100.00,West,281,1.0,11.0,29,0.00,,,0.00,183.000000,,2013-06-05 03:22:00,
2013-06-04 21:33:00,72.0,38.0,-100.00,West,281,1.0,11.0,29,0.00,,,0.00,183.000000,,2013-06-05 03:33:00,
2013-06-04 21:42:00,66.0,39.0,-100.00,South,183,2.0,7.0,37,0.00,,,0.00,34.000000,,2013-06-05 03:42:00,
2013-06-04 22:02:00,66.0,39.0,-100.00,South,183,2.0,7.0,37,0.00,,,0.00,34.000000,,2013-06-05 04:02:00,
2013-06-04 22:13:00,66.0,39.0,-100.00,South,183,2.0,7.0,37,0.00,,,0.00,34.000000,,2013-06-05 04:13:00,
2013-06-04 22:22:00,66.0,39.0,-100.00,South,183,2.0,7.0,37,0.00,,,0.00,34.000000,,2013-06-05 04:22:00,
2013-06-04 22:33:00,66.0,39.0,-100.00,South,183,2.0,7.0,37,0.00,,,0.00,34.000000,,2013-06-05 04:33:00,
2013-06-04 22:42:00,63.0,38.0,-100.00,SE,133,3.0,8.0,40,0.00,,,0.00,0.000000,,2013-06-05 04:42:00,
2013-06-04 23:02:00,63.0,38.0,-100.00,SE,133,3.0,8.0,40,0.00,,,0.00,0.000000,,2013-06-05 05:02:00,
2013-06-04 23:12:00,63.0,38.0,-100.00,SE,133,3.0,8.0,40,0.00,,,0.00,0.000000,,2013-06-05 05:12:00,
2013-06-04 23:22:00,63.0,38.0,-100.00,SE,133,3.0,8.0,40,0.00,,,0.00,0.000000,,2013-06-05 05:22:00,
2013-06-04 23:32:00,63.0,38.0,-100.00,SE,133,3.0,8.0,40,0.00,,,0.00,0.000000,,2013-06-05 05:32:00,
2013-06-04 23:42:00,62.0,39.0,-100.00,East,81,3.0,10.0,42,0.00,,,0.00,0.000000,,2013-06-05 05:42:00,